Вернуться в каталог

SL-16 DEB

АктивенLEO
NORAD 18476·DEBRIS·🇷🇺 Russia

Запущен May 13, 1987 с Baikonur Cosmodrome

Loading…

Ближайшие Пролёты (ближайшие 24 часа)

TLE

СвежийSource: Space-Track

Эпоха: Sep 14, 2026, 06:04 UTC

1 18476U 87041F   26257.25309791 -.00000014  00000-0  27392-4 0  9997
2 18476  70.9895 351.1987 0209623 287.4282 100.4353 13.73220132970113

Отслеживайте SL-16 DEB в реальном времени с AllMySat

Download on the App Store